weather.gov     
National Weather Service

Regional Weather Roundup
NWS Homepage
This page is being discontinued on March 12, 2014.
The same data is available at this site. Please update your bookmarks.
Thank you, and we apologize for the inconvenience.
Please send an email to SR-SRH.Webmaster@noaa.gov with any concerns.


Current Version
Previous Version:    01  02  03  04  05  06  07  08  09  10  11  12  13  14  15  16  17  18  19  20  21  22  23  24  25  26  27  28  29  30  
   31  32  33  34  35  36  37  38  39  40  41  42  43  44  45  46  47  48  49  50  51  52  53  54  55  56  57  58  59  60  
[Printable]
185
ASUS44 KFWD 240803
RWRTX
NORTH TEXAS HOURLY WEATHER ROUNDUP
NATIONAL WEATHER SERVICE FORT WORTH TX
300 AM CDT FRI OCT 24 2014

NOTE: "FAIR" INDICATES FEW OR NO CLOUDS BELOW 12,000 FEET WITH NO
SIGNIFICANT WEATHER AND/OR OBSTRUCTIONS TO VISIBILITY.

TXZ118-119-240900-
DALLAS/FORT WORTH METROPLEX

CITY           SKY/WX    TMP DP  RH WIND       PRES   REMARKS
DFW AIRPORT    PTCLDY    64  55  72 S7        30.11S
DALLAS LOVE    PTCLDY    64  56  75 S9        30.11S
FTW MEACHAM    CLEAR     63  55  75 S7        30.10F
DAL-EXECUTIVE  MOCLDY    64  56  75 S6        30.11S
FTW-ALLIANCE   PTCLDY    62  56  80 CALM      30.10F
FTW-NAS-JRB    CLEAR     69  54  58 S5        30.15S
FTW-SPINKS     CLEAR     63  55  77 S7        30.12F
ARLINGTON      PTCLDY    62  55  77 SE3       30.11F
GRAND PRAIRIE  CLEAR     64  57  79 S3        30.13S
ADDISON        CLEAR     64  58  82 S7        30.13S
MESQUITE       CLEAR     58  55  89 SE3       30.12S
LANCASTER      CLEAR     58  54  86 CALM      30.13S
$$

TXZ091>094-102>105-117-120-121-131>134-240900-
NORTH CENTRAL TEXAS

CITY           SKY/WX    TMP DP  RH WIND       PRES   REMARKS
SHRMAN/DENISON CLEAR     61  57  85 SE6       30.13R
GAINESVILLE    CLEAR     58  55  89 S5        30.13S
BOWIE          CLEAR     60  57  91 SE3       30.10F
BRIDGEPORT     CLEAR     58  58 100 CALM      30.12F
DECATUR        CLEAR     63  55  74 S6        30.11S
DENTON         CLEAR     60  56  86 S5        30.11S
MCKINNEY       CLEAR     57  55  93 SE3       30.12S
GREENVILLE     CLEAR     55  52  88 CALM      30.13S
ROCKWALL       CLEAR     60  55  84 S5        30.11S
TERRELL        CLEAR     60  55  83 CALM      30.12F
WAXAHACHIE     CLOUDY    61  56  85 CALM      30.13S
CLEBURNE       CLOUDY    63  57  82 S6        30.13S
GRANBURY       CLEAR     64  57  77 SE5       30.12S
$$

TXZ083>090-098>101-113>116-127>130-139>142-154-155-240900-
WESTERN NORTH TEXAS

CITY           SKY/WX    TMP DP  RH WIND       PRES   REMARKS
WICHITA FALLS  CLEAR     63  58  83 S8        30.08S
WF-KICKAPOO    CLEAR     63  57  81 S5        30.09S
VERNON         CLEAR     63  57  82 CALM      30.09R
ABILENE        CLEAR     64  59  83 S6        30.11F
ABILENE-DYESS  CLEAR     66  60  81 S9        30.10S
BRECKENRIDGE   CLEAR     66  59  76 S6        30.10R HAZE
MINERAL WELLS  CLEAR     61  56  83 SE7       30.10R
STEPHENVILLE   CLEAR     61  56  84 S3        30.14S
COMANCHE       CLEAR     61  59  92 S3        30.12F
COLEMAN        CLEAR     63  60  91 SW3       30.13S
BRADY          CLEAR     63  59  88 SW3       30.13S
$$

TXZ143>147-156>162-174-175-240900-
CENTRAL TEXAS

CITY           SKY/WX    TMP DP  RH WIND       PRES   REMARKS
WACO           MOCLDY    65  55  70 S12       30.12S
WACO-MCGREGOR  PTCLDY    63  52  67 S3        30.14S
HILLSBORO      MOCLDY    64  55  72 SE6       30.13S
CORSICANA      CLEAR     61  55  81 S7        30.13F
MEXIA          CLEAR     58  55  87 SE3       30.12F
HEARNE         CLEAR     59  55  86 CALM      30.14S HAZE
CAMERON        CLEAR     60  56  85 CALM      30.13S
TEMPLE         CLEAR     61  52  72 SE6       30.12S
KILLEEN        CLEAR     62  56  79 S6        30.13S
KILLEEN-SKYLRK CLEAR     63  52  67 S5        30.10S
FORT HOOD      CLEAR     65  56  72 SE3       30.13S
GATESVILLE     CLEAR     61  55  82 CALM      30.15S
HAMILTON       CLEAR     62  55  79 SE9       30.14S
LAMPASAS       CLEAR     61  58  89 CALM      30.12S
$$

TXZ095>097-106>112-122>126-135>138-148>153-164>167-240900-
EAST TEXAS

CITY           SKY/WX    TMP DP  RH WIND       PRES   REMARKS
PARIS          CLEAR     54  45  71 SE5       30.14S
SULPHUR SPRNGS CLEAR     56  53  90 E3        30.16R
MOUNT PLEASANT CLEAR     53  52  97 CALM      30.15S
MINEOLA        CLEAR     54  54 100 CALM      30.14S
TYLER          CLEAR     57  53  86 S5        30.13S
LONGVIEW       CLEAR     53  50  89 E3        30.14R
MARSHALL       CLEAR     53  51  92 CALM      30.16S
ATHENS         CLEAR     54  52  94 CALM      30.12S
PALESTINE      CLEAR     57  55  92 CALM      30.14F FOG
JACKSONVILLE   CLEAR     57  51  81 CALM      30.15S
HENDERSON      CLEAR     52  52 100 CALM      30.15S
NACOGDOCHES    CLEAR     48  45  87 CALM      30.15R
LUFKIN         CLEAR     54  50  86 CALM      30.13S
$$

SUPPLEMENTAL OBSERVATIONS (CENTRAL)

CITY           SKY/WX    TMP DP  RH WIND       PRES   REMARKS
$$

SUPPLEMENTAL OBSERVATIONS (WEST)

CITY           SKY/WX    TMP DP  RH WIND       PRES   REMARKS
$$

SUPPLEMENTAL OBSERVATIONS (EAST)

CITY           SKY/WX    TMP DP  RH WIND       PRES   REMARKS
$$

SUPPLEMENTAL OBSERVATIONS ARE A COLLECTION OF AUTOMATED INSTRUMENTS
THAT ARE MAINTAINED BY A VARIETY OF FEDERAL AND STATE AGENCIES.
CERTAIN ELEMENTS...SUCH AS HUMIDITY VALUES AND SUSTAINED WIND
SPEEDS...MAY BE APPROXIMATED.





U.S. Dept. of Commerce
NOAA National Weather Service
1325 East West Highway
Silver Spring, MD 20910
E-mail: w-nws.webmaster@noaa.gov
Page last modified: May 16, 2007
NATIONAL WEATHER SERVICE: for Safety, for Work, for Fun - FOR LIFE